Previsão horária em Aathal

Hoje, 15 Janeiro, Sexta-feira

Tempo Temperatura Precipitação Vento Pressão Humidade
00:00 +1°C° 1.5 mm 1 m/s 711 mmHg 98%
01:00 -1°C° 0 mm 2 m/s 711 mmHg 98%
02:00 +1°C° 1.6 mm 1 m/s 711 mmHg 98%
03:00 +1°C° 1.6 mm 1 m/s 711 mmHg 98%
04:00 0°C° 1.6 mm 1 m/s 711 mmHg 98%
05:00 0°C° 1 mm 1 m/s 711 mmHg 98%
06:00 0°C° 1 mm 1 m/s 711 mmHg 98%
07:00 -2°C° 0 mm 2 m/s 712 mmHg 97%
08:00 -3°C° 1.6 mm 2 m/s 712 mmHg 97%
09:00 -1°C° 1.6 mm 1 m/s 713 mmHg 97%
10:00 -1°C° 1.6 mm 1 m/s 713 mmHg 97%
11:00 -3°C° 0.7 mm 2 m/s 713 mmHg 96%
12:00 -3°C° 0.7 mm 2 m/s 714 mmHg 96%
13:00 -3°C° 0 mm 2 m/s 714 mmHg 95%
14:00 -3°C° 0.2 mm 2 m/s 714 mmHg 95%
15:00 -1°C° 0.2 mm 1 m/s 715 mmHg 95%
16:00 -1°C° 0.2 mm 1 m/s 715 mmHg 95%
17:00 -2°C° 0.1 mm 1 m/s 716 mmHg 95%
18:00 -3°C° 0.1 mm 1 m/s 717 mmHg 96%
19:00 -3°C° 0.1 mm 1 m/s 717 mmHg 96%
20:00 -4°C° 0 mm 1 m/s 718 mmHg 96%
21:00 -4°C° 0 mm 1 m/s 718 mmHg 96%
22:00 -6°C° 0 mm 0 m/s 719 mmHg 95%
23:00 -7°C° 0 mm 0 m/s 719 mmHg 94%

Amanhã, 16 Janeiro, Sábado

Tempo Temperatura Precipitação Vento Pressão Humidade
00:00 -8°C° 0 mm 0 m/s 719 mmHg 93%
01:00 -8°C° 0 mm 0 m/s 719 mmHg 92%
02:00 -9°C° 0 mm 1 m/s 718 mmHg 91%
03:00 -10°C° 0 mm 1 m/s 718 mmHg 90%
04:00 -10°C° 0 mm 1 m/s 718 mmHg 89%
05:00 -10°C° 0 mm 1 m/s 718 mmHg 89%
06:00 -11°C° 0 mm 1 m/s 718 mmHg 88%
07:00 -11°C° 0 mm 1 m/s 719 mmHg 87%
08:00 -10°C° 0 mm 0 m/s 718 mmHg 88%
09:00 -8°C° 0 mm 0 m/s 718 mmHg 88%
10:00 -7°C° 0 mm 0 m/s 718 mmHg 89%
11:00 -6°C° 0 mm 0 m/s 718 mmHg 88%
12:00 -4°C° 0 mm 0 m/s 718 mmHg 88%
13:00 -3°C° 0 mm 0 m/s 717 mmHg 88%
14:00 -4°C° 0 mm 0 m/s 717 mmHg 90%
15:00 -4°C° 0 mm 0 m/s 717 mmHg 92%
16:00 -4°C° 0 mm 0 m/s 716 mmHg 94%
17:00 -5°C° 0 mm 0 m/s 716 mmHg 92%
18:00 -6°C° 0 mm 1 m/s 716 mmHg 90%
19:00 -7°C° 0 mm 1 m/s 716 mmHg 88%
20:00 -6°C° 0 mm 1 m/s 716 mmHg 88%
21:00 -6°C° 0 mm 1 m/s 716 mmHg 87%
22:00 -4°C° 0 mm 1 m/s 716 mmHg 87%
23:00 -3°C° 0.2 mm 1 m/s 715 mmHg 88%

Depois de amanhã, 17 Janeiro, Domingo

Tempo Temperatura Precipitação Vento Pressão Humidade
00:00 -3°C° 0.2 mm 1 m/s 715 mmHg 89%
01:00 -2°C° 0.2 mm 1 m/s 715 mmHg 91%
02:00 -2°C° 0.8 mm 1 m/s 714 mmHg 93%
03:00 -1°C° 0.8 mm 1 m/s 714 mmHg 95%
04:00 -1°C° 0.8 mm 1 m/s 713 mmHg 98%
05:00 -2°C° 0.7 mm 2 m/s 713 mmHg 98%
06:00 -1°C° 0.7 mm 2 m/s 714 mmHg 98%
07:00 0°C° 0.7 mm 3 m/s 714 mmHg 99%
08:00 0°C° 0.4 mm 3 m/s 714 mmHg 99%
09:00 0°C° 0.4 mm 3 m/s 714 mmHg 99%
10:00 0°C° 0.4 mm 3 m/s 714 mmHg 99%
11:00 0°C° 0.7 mm 3 m/s 714 mmHg 99%
12:00 0°C° 0.7 mm 3 m/s 714 mmHg 99%
13:00 0°C° 0.7 mm 3 m/s 714 mmHg 99%
14:00 0°C° 0.7 mm 3 m/s 715 mmHg 99%
15:00 0°C° 0.7 mm 3 m/s 715 mmHg 99%
16:00 0°C° 0.7 mm 3 m/s 715 mmHg 99%
17:00 -1°C° 0.5 mm 2 m/s 716 mmHg 98%
18:00 -1°C° 0.5 mm 2 m/s 716 mmHg 98%
19:00 -2°C° 0.5 mm 2 m/s 717 mmHg 97%
20:00 -2°C° 0.5 mm 2 m/s 717 mmHg 97%
21:00 -2°C° 0.5 mm 2 m/s 718 mmHg 97%
22:00 -2°C° 0.5 mm 2 m/s 718 mmHg 97%
23:00 -2°C° 0.1 mm 2 m/s 719 mmHg 96%

18 Janeiro, Segunda-feira

Tempo Temperatura Precipitação Vento Pressão Humidade
00:00 -1°C° 0.1 mm 1 m/s 719 mmHg 96%
01:00 -1°C° 0.1 mm 1 m/s 719 mmHg 96%
02:00 -2°C° 0 mm 1 m/s 719 mmHg 95%
03:00 -2°C° 0 mm 1 m/s 719 mmHg 94%
04:00 -3°C° 0 mm 1 m/s 719 mmHg 94%
05:00 -4°C° 0 mm 1 m/s 719 mmHg 93%
06:00 -4°C° 0 mm 1 m/s 719 mmHg 92%
07:00 -6°C° 0 mm 1 m/s 719 mmHg 91%
08:00 -4°C° 0 mm 1 m/s 719 mmHg 91%
09:00 -3°C° 0 mm 1 m/s 720 mmHg 91%
10:00 -2°C° 0 mm 1 m/s 720 mmHg 91%
11:00 -2°C° 0 mm 0 m/s 720 mmHg 91%
12:00 -1°C° 0 mm 0 m/s 719 mmHg 92%
13:00 0°C° 0 mm 0 m/s 719 mmHg 92%
14:00 0°C° 0 mm 0 m/s 719 mmHg 93%
15:00 -1°C° 0 mm 0 m/s 719 mmHg 94%
16:00 -1°C° 0 mm 0 m/s 718 mmHg 95%
17:00 -2°C° 0 mm 0 m/s 719 mmHg 94%
18:00 -3°C° 0 mm 0 m/s 719 mmHg 92%
19:00 -4°C° 0 mm 1 m/s 719 mmHg 90%
20:00 -4°C° 0 mm 1 m/s 719 mmHg 89%
21:00 -4°C° 0 mm 1 m/s 719 mmHg 87%
22:00 -4°C° 0 mm 1 m/s 719 mmHg 85%
23:00 -4°C° 0 mm 1 m/s 719 mmHg 84%

19 Janeiro, Terça-feira

Tempo Temperatura Precipitação Vento Pressão Humidade
00:00 -4°C° 0 mm 1 m/s 718 mmHg 82%
01:00 -4°C° 0 mm 1 m/s 718 mmHg 81%
02:00 -4°C° 0 mm 1 m/s 717 mmHg 80%
03:00 -4°C° 0 mm 1 m/s 717 mmHg 80%
04:00 -4°C° 0 mm 1 m/s 717 mmHg 79%
05:00 -4°C° 0 mm 1 m/s 716 mmHg 79%
06:00 -4°C° 0 mm 1 m/s 716 mmHg 78%
07:00 -3°C° 0 mm 1 m/s 716 mmHg 78%
08:00 -2°C° 0 mm 1 m/s 716 mmHg 79%
09:00 -1°C° 0 mm 1 m/s 716 mmHg 80%
10:00 +1°C° 0 mm 1 m/s 716 mmHg 81%
11:00 +2°C° 0 mm 1 m/s 715 mmHg 87%
12:00 +3°C° 0 mm 1 m/s 715 mmHg 92%
13:00 +3°C° 0 mm 0 m/s 715 mmHg 98%
14:00 +3°C° 0 mm 0 m/s 714 mmHg 95%
15:00 +4°C° 0 mm 1 m/s 714 mmHg 91%
16:00 +3°C° 0 mm 1 m/s 714 mmHg 88%
17:00 +2°C° 0 mm 1 m/s 714 mmHg 85%
18:00 +1°C° 0 mm 1 m/s 714 mmHg 82%
19:00 -3°C° 0 mm 2 m/s 714 mmHg 79%
20:00 -3°C° 0 mm 2 m/s 714 mmHg 79%
21:00 -4°C° 0 mm 2 m/s 714 mmHg 79%
22:00 -4°C° 0 mm 2 m/s 713 mmHg 78%
23:00 -4°C° 0 mm 2 m/s 713 mmHg 78%

20 Janeiro, Quarta-feira

Tempo Temperatura Precipitação Vento Pressão Humidade
00:00 -4°C° 0 mm 2 m/s 713 mmHg 78%
01:00 -5°C° 0 mm 2 m/s 713 mmHg 78%
02:00 -4°C° 0 mm 2 m/s 713 mmHg 79%
03:00 -4°C° 0 mm 2 m/s 712 mmHg 79%
04:00 -4°C° 0 mm 2 m/s 712 mmHg 80%
05:00 -4°C° 0 mm 2 m/s 712 mmHg 80%
06:00 -4°C° 0 mm 2 m/s 712 mmHg 81%
07:00 -4°C° 0 mm 2 m/s 712 mmHg 82%
08:00 -3°C° 0 mm 2 m/s 712 mmHg 83%
09:00 -2°C° 0 mm 2 m/s 712 mmHg 84%
10:00 -1°C° 0 mm 2 m/s 711 mmHg 85%
11:00 +1°C° 0 mm 2 m/s 711 mmHg 88%
12:00 +2°C° 0 mm 2 m/s 711 mmHg 92%
13:00 +3°C° 0 mm 1 m/s 710 mmHg 95%
14:00 +2°C° 0 mm 2 m/s 710 mmHg 94%
15:00 +2°C° 0 mm 2 m/s 709 mmHg 93%
16:00 +2°C° 0 mm 2 m/s 709 mmHg 92%
17:00 +2°C° 0 mm 2 m/s 709 mmHg 90%
18:00 +1°C° 0 mm 2 m/s 708 mmHg 88%
19:00 0°C° 0 mm 3 m/s 708 mmHg 85%
20:00 -1°C° 0 mm 2 m/s 708 mmHg 86%
21:00 -2°C° 0 mm 2 m/s 707 mmHg 86%
22:00 -2°C° 0 mm 2 m/s 707 mmHg 86%
23:00 -2°C° 0 mm 2 m/s 707 mmHg 86%
Mostrar mais